Back to catalog

KUIPER-00489

AliveCommunicationsLEO
NORAD 68880·PAYLOAD·🇺🇸 United States

Launched Apr 28, 2026 from Cape Canaveral Space Force Station

Loading…

Next Passes (next 24 hours)

TLE

FreshSource: CelesTrak SupGP

Epoch: Sep 14, 2026, 16:10 UTC

1 68880C 26095S   26257.67368056  .00004017  00000+0  52573-3 0  2578
2 68880  51.8960 192.4437 0001269  73.5885 143.7073 14.79930480    16

Track KUIPER-00489 in real time with AllMySat

Download on the App Store